Regional Weather Roundup
Issued by NWS

Home | Current Version | Previous Version | Text Only | Print | Product List | Glossary Off
Versions: 1 2 3 4 5 6 7 8 9 10 11 12 13 14 15 16 17 18 19 20 21 22 23 24 25 26 27 28 29 30 31 32 33 34 35 36 37 38 39 40 41 42 43 44 45 46 47 48 49 50

000
ASUS45 KABQ 281610
RWRNM
NEW MEXICO REGIONAL WEATHER ROUNDUP
NATIONAL WEATHER SERVICE ALBUQUERQUE NM
1000 AM MDT THU MAY 28 2015

NOTE: "FAIR" MEANS FEW OR NO CLOUDS BELOW 12,000 FEET AGL WITH NO
       SIGNIFICANT WEATHER OR OBSTRUCTIONS TO VISION.

      THIS PRODUCT IS RELEASED AS TWO VERSIONS.  ONE VERSION NEAR
      THE TOP OF THE HOUR CONTAINING PRELIMINARY DATA FROM ALBUQUERQUE
      AND OTHER STATIONS.  A FINAL VERSION WITH ADDITIONAL DATA IS
      ISSUED ABOUT 10 MINUTES AFTER THE HOUR.

NMZ501-503-504-510>518-281700-
NORTHWEST PLATEAU/NORTHCENTRAL MOUNTAINS

CITY           SKY/WX    TMP DP  RH WIND       PRES   REMARKS
FARMINGTON     SUNNY     64  38  38 VRB3      30.13S
LOS ALAMOS     MOSUNNY   62  34  34 E3        30.21F
SANTA FE       SUNNY     68  33  27 VRB3      30.16F
TAOS           SUNNY     61  34  36 S7        30.21F
ANGEL FIRE     FAIR      58  31  36 CALM      30.26F

$$
NMZ402-403-502-505>509-281700-
WESTCENTRAL MOUNTAINS/SOUTHWEST MOUNTAINS

CITY           SKY/WX    TMP DP  RH WIND       PRES   REMARKS
GALLUP         SUNNY     66  29  24 SW12      30.20F
GRANTS         SUNNY     66  26  22 CALM      30.21F
SILVER CITY      N/A     75  16  10 N5        30.16F

$$
NMZ407-409-411-412-281700-
SOUTHERN DESERTS

CITY           SKY/WX    TMP DP  RH WIND       PRES   REMARKS
LORDSBURG      FAIR      75  27  16 W8        30.10F
DEMING         SUNNY     79  23  12 SW7       30.08F
LAS CRUCES     SUNNY     78  19  10 N5        30.09S
HOLLOMAN AFB   SUNNY     78  49  34 NW1       30.04F
ALAMOGORDO     SUNNY     77  46  33 CALM      30.06F
T OR C         SUNNY     78  26  14 VRB3      30.09F

$$
NMZ519>523-281700-
CENTRAL VALLEYS/CENTRAL HIGHLANDS

CITY           SKY/WX    TMP DP  RH WIND       PRES   REMARKS
ALBUQUERQUE    MOSUNNY   69  33  26 SW3       30.15S
DOUBLE EAGLE   MOSUNNY   70  36  28 S5        30.17S
MORIARTY ARPT  FAIR      70  29  22 CALM      30.17F
CLINES CORNERS NOT AVBL
BELEN          FAIR      71  31  22 CALM      30.14S
SOCORRO        FAIR      77  27  15 NE8       30.11S

$$
NMZ524>526-539-540-281700-
SOUTHCENTRAL MOUNTAINS

CITY           SKY/WX    TMP DP  RH WIND       PRES   REMARKS
RUIDOSO        SUNNY     72  23  16 MISG      30.22F

$$
NMZ527>531-281700-
NORTHEAST HIGHLANDS/NORTHEAST PLAINS

CITY           SKY/WX    TMP DP  RH WIND       PRES   REMARKS
LAS VEGAS      SUNNY     65  35  33 VRB3      30.17F
RATON          PTSUNNY   63  47  55 SE5       30.12F
CLAYTON        CLOUDY    64  59  83 S18       30.09F

$$
NMZ532>537-281700-
EASTCENTRAL PLAINS

CITY           SKY/WX    TMP DP  RH WIND       PRES   REMARKS
TUCUMCARI      MOSUNNY   75  61  61 S15       30.04F
CANNON AFB     PTSUNNY   71  63  76 S15       30.09S
CLOVIS AIRPORT CLOUDY    70  63  78 SE18        N/A

$$
NMZ028-029-538-281700-
SOUTHEAST PLAINS

CITY           SKY/WX    TMP DP  RH WIND       PRES   REMARKS
ROSWELL        PTSUNNY   76  63  64 S13       30.02F
ARTESIA        PTSUNNY   73  64  73 SE13      30.04F
CARLSBAD       MOSUNNY   74  64  71 SE7       30.01S
HOBBS          PTSUNNY   72  70  94 SE15      30.07S


$$


USA.gov is the U.S. government's official web portal to all federal, state and local government web resources and services.